Yakima, WA
on Saturday, February 23, 2013

Saturday
Previous Day Next Day
Daily Summary
 ActualAverageRecord
Temperature
Mean Temperature °F 38°F  
Max Temperature 53°F 49°F 69°F (1947)
Min Temperature 26°F 27°F 16°F (1993)
Degree Days
Heating Degree Days 25 27  
Month to date heating degree days 570 676  
Since 1 July heating degree days 3839 4394  
Cooling Degree Days 0 0  
Month to date cooling degree days 0 0  
Year to date cooling degree days 0 0  
Moisture
Dew Point 22°F   
Average Humidity 49    
Maximum Humidity 69    
Minimum Humidity 29    
Precipitation
Precipitation 0.00 in 0.03 in 0.28 in (2009)
Month to date precipitation T 0.65  
Year to date precipitation 0.10 1.79  
Snow
Snow 0.00 in 0.10 in 2.40 in (1969)
Month to date snowfall 0.0 2.3  
Year to date snowfall 1.1 7.6  
Since 1 July snowfall 15.3 20.6  
Snow Depth 0.00 in   
Wind
Wind Speed 11 mph   
Max Wind Speed 31 mph   
Max Gust Speed 36 mph   
Visibility 10 miles   
Events     

Key: T is trace of precipitation, MM is missing value
Source: NWS Daily Summary
Time(PST)TemperatureDew PointHumidity Pressure Visibility Wind DirectionWind SpeedGust SpeedPrecipitationEvents Conditions
12:53 AM 36.0°F 23.0°F 59% 29.86 in 10.0 miles WSW 8.1 mph - N/A   Clear
1:53 AM 37.9°F 21.9°F 53% 29.88 in 10.0 miles WNW 10.4 mph 20.7 mph N/A   Clear
2:53 AM 34.0°F 21.0°F 59% 29.90 in 10.0 miles WSW 6.9 mph - N/A   Clear
3:53 AM 34.0°F 19.9°F 56% 29.90 in 10.0 miles West 8.1 mph - N/A   Clear
4:53 AM 28.0°F 19.0°F 69% 29.92 in 10.0 miles West 9.2 mph - N/A   Clear
5:53 AM 32.0°F 21.0°F 64% 29.94 in 10.0 miles Calm Calm - N/A   Clear
6:53 AM 28.9°F 19.9°F 69% 29.98 in 10.0 miles ESE 3.5 mph - N/A   Clear
7:53 AM 33.1°F 23.0°F 66% 29.99 in 10.0 miles Calm Calm - N/A   Clear
8:53 AM 42.1°F 25.0°F 51% 30.01 in 10.0 miles WNW 9.2 mph - N/A   Clear
9:53 AM 50.0°F 24.1°F 36% 30.02 in 10.0 miles West 20.7 mph 29.9 mph N/A   Clear
10:53 AM 51.1°F 23.0°F 33% 30.05 in 10.0 miles West 19.6 mph 28.8 mph N/A   Clear
11:53 AM 53.6°F 23.0°F 30% 30.04 in 10.0 miles West 20.7 mph 31.1 mph N/A   Scattered Clouds
12:53 PM 53.1°F 23.0°F 31% 30.06 in 10.0 miles West 21.9 mph 29.9 mph N/A   Scattered Clouds
1:53 PM 52.0°F 21.9°F 31% 30.08 in 10.0 miles West 24.2 mph 33.4 mph N/A   Scattered Clouds
2:53 PM 51.1°F 21.0°F 31% 30.12 in 10.0 miles West 23.0 mph 31.1 mph N/A   Scattered Clouds
3:53 PM 48.9°F 21.9°F 35% 30.16 in 10.0 miles West 17.3 mph 24.2 mph N/A   Partly Cloudy
4:53 PM 46.9°F 21.0°F 36% 30.19 in 10.0 miles West 16.1 mph - N/A   Clear
5:53 PM 44.1°F 21.0°F 40% 30.21 in 10.0 miles WNW 13.8 mph - N/A   Partly Cloudy
6:53 PM 41.0°F 21.9°F 47% 30.25 in 10.0 miles WNW 9.2 mph - N/A   Clear
7:53 PM 35.6°F 19.4°F 52% 30.24 in 10.0 miles West 6.9 mph - N/A   Clear
8:53 PM 35.1°F 21.9°F 59% 30.28 in 10.0 miles Calm Calm - N/A   Clear
9:53 PM 39.0°F 23.0°F 53% 30.30 in 10.0 miles Calm Calm - N/A   Clear
10:53 PM 39.9°F 21.0°F 47% 30.30 in 10.0 miles West 9.2 mph - N/A   Clear
11:53 PM 41.0°F 21.0°F 45% 30.30 in 10.0 miles NW 8.1 mph 16.1 mph N/A   Clear
Moon Phase
Feb. 23 Feb. 25 Mar. 04 Mar. 11 Mar. 19
Sunrise:06:51 AM (PST) Moon Rise:03:52 PM (PST)2/23
Sunset:05:39 PM (PST) Moon Set:05:21 AM (PST)2/23

Copyright © 2014 The Weather Underground, Inc.